| time (UTC) | temp F | wind direction | speed knots | gust knots | rain 1hr in | rain 24hr in | rain mn in | humidity % | barometer mb |
| 20260508011538 | 45 | 0 | 0.0 | 0.0 | 0.07 | 0.97 | 0.97 | 97 | 1002.8 |
| 20260508010038 | 45 | 0 | 0.0 | 0.0 | 0.10 | 0.96 | 0.96 | 97 | 1002.6 |
| 20260508004540 | 45 | 0 | 0.0 | 0.9 | 0.13 | 0.94 | 0.94 | 97 | 1002.7 |
| 20260508003038 | 45 | 0 | 0.0 | 2.6 | 0.13 | 0.92 | 0.92 | 97 | 1002.7 |
| 20260508001539 | 45 | 241 | 0.0 | 2.6 | 0.14 | 0.90 | 0.90 | 96 | 1002.8 |
| 20260508000039 | 45 | 219 | 0.0 | 4.3 | 0.09 | 0.85 | 0.85 | 96 | 1002.8 |
| 20260507234538 | 45 | 0 | 1.7 | 12.2 | 0.05 | 0.81 | 0.81 | 96 | 1002.4 |
| 20260507233039 | 46 | 308 | 7.0 | 15.6 | 0.02 | 0.78 | 0.78 | 95 | 1002.1 |
| 20260507231543 | 48 | 267 | 7.0 | 18.2 | 0.00 | 0.76 | 0.76 | 95 | 1001.8 |
| 20260507230037 | 52 | 265 | 7.8 | 13.9 | 0.00 | 0.76 | 0.76 | 93 | 1001.6 |
| 20260507224537 | 53 | 210 | 3.5 | 7.0 | 0.00 | 0.76 | 0.76 | 94 | 1001.2 |
| 20260507223040 | 54 | 241 | 1.7 | 3.5 | 0.00 | 0.76 | 0.76 | 93 | 1001.1 |
| 20260507221538 | 55 | 0 | 0.9 | 7.8 | 0.00 | 0.76 | 0.76 | 93 | 1001.1 |
| 20260507220038 | 55 | 156 | 2.6 | 8.7 | 0.00 | 0.76 | 0.76 | 93 | 1000.9 |
| 20260507214552 | 55 | 157 | 0.9 | 4.3 | 0.00 | 0.76 | 0.76 | 93 | 1000.9 |
| 20260507213039 | 55 | 173 | 1.7 | 7.8 | 0.00 | 0.76 | 0.76 | 93 | 1000.8 |
| 20260507211537 | 55 | 102 | 4.3 | 8.7 | 0.00 | 0.76 | 0.76 | 94 | 1000.8 |
| 20260507210049 | 55 | 152 | 3.5 | 9.6 | 0.00 | 0.76 | 0.76 | 94 | 1000.8 |
| 20260507204539 | 54 | 189 | 6.1 | 10.4 | 0.02 | 0.76 | 0.76 | 94 | 1000.6 |
| 20260507203048 | 54 | 166 | 1.7 | 11.3 | 0.06 | 0.76 | 0.76 | 95 | 1000.8 |
| 20260507201543 | 54 | 119 | 6.1 | 13.9 | 0.09 | 0.76 | 0.76 | 95 | 1000.3 |
| 20260507200043 | 54 | 107 | 8.7 | 18.2 | 0.13 | 0.76 | 0.76 | 95 | 999.8 |
| 20260507194600 | 54 | 106 | 7.8 | 12.2 | 0.14 | 0.74 | 0.74 | 96 | 1001.0 |
| 20260507193038 | 54 | 87 | 4.3 | 12.2 | 0.13 | 0.70 | 0.70 | 96 | 1001.7 |
| 20260507191543 | 54 | 174 | 1.7 | 8.7 | 0.15 | 0.66 | 0.66 | 96 | 1002.9 |
| 20260507190038 | 54 | 129 | 5.2 | 10.4 | 0.20 | 0.63 | 0.63 | 96 | 1002.6 |
| 20260507184540 | 54 | 152 | 6.1 | 13.0 | 0.27 | 0.60 | 0.60 | 96 | 1003.1 |
| 20260507183038 | 54 | 147 | 4.3 | 11.3 | 0.41 | 0.56 | 0.56 | 96 | 1003.1 |
| 20260507181542 | 53 | 162 | 4.3 | 10.4 | 0.47 | 0.51 | 0.51 | 96 | 1003.5 |
| 20260507180041 | 53 | 6 | 3.5 | 12.2 | 0.41 | 0.43 | 0.43 | 95 | 1003.7 |
| 20260507174544 | 53 | 194 | 4.3 | 14.8 | 0.31 | 0.32 | 0.32 | 94 | 1003.8 |
| 20260507173039 | 54 | 221 | 7.0 | 19.1 | 0.14 | 0.14 | 0.14 | 93 | 1003.4 |
| 20260507171545 | 55 | 250 | 7.0 | 23.5 | 0.04 | 0.04 | 0.04 | 92 | 1002.9 |
| 20260507170040 | 56 | 188 | 7.0 | 18.2 | 0.02 | 0.02 | 0.02 | 90 | 1002.8 |
| 20260507164542 | 57 | 179 | 7.0 | 19.1 | 0.01 | 0.01 | 0.01 | 88 | 1002.9 |
| 20260507163039 | 60 | 163 | 7.0 | 22.6 | 0.00 | 0.00 | 0.00 | 82 | 1003.2 |
| 20260507161542 | 59 | 169 | 7.0 | 17.4 | 0.00 | 0.00 | 0.00 | 83 | 1003.5 |
| 20260507160037 | 60 | 0 | 7.8 | 22.6 | 0.00 | 0.00 | 0.00 | 81 | 1003.7 |
| 20260507154538 | 60 | 152 | 12.2 | 24.3 | 0.00 | 0.00 | 0.00 | 78 | 1004.0 |
| 20260507153042 | 61 | 131 | 10.4 | 26.9 | 0.00 | 0.00 | 0.00 | 78 | 1004.3 |
| 20260507151539 | 61 | 142 | 10.4 | 25.2 | 0.00 | 0.00 | 0.00 | 78 | 1004.8 |
| 20260507150039 | 61 | 50 | 11.3 | 26.1 | 0.00 | 0.00 | 0.00 | 78 | 1005.0 |
| 20260507144537 | 61 | 165 | 9.6 | 23.5 | 0.00 | 0.00 | 0.00 | 79 | 1005.0 |
| 20260507143038 | 61 | 142 | 10.4 | 22.6 | 0.00 | 0.00 | 0.00 | 80 | 1005.1 |
| 20260507141544 | 60 | 136 | 11.3 | 21.7 | 0.00 | 0.00 | 0.00 | 82 | 1005.4 |
| 20260507140041 | 59 | 142 | 13.9 | 25.2 | 0.00 | 0.00 | 0.00 | 84 | 1005.4 |
| 20260507134541 | 60 | 216 | 12.2 | 24.3 | 0.00 | 0.00 | 0.00 | 82 | 1005.7 |
| 20260507133039 | 59 | 102 | 13.0 | 26.9 | 0.00 | 0.00 | 0.00 | 82 | 1005.7 |
| 20260507131548 | 59 | 157 | 10.4 | 28.7 | 0.00 | 0.00 | 0.00 | 83 | 1006.0 |
| 20260507130041 | 60 | 142 | 12.2 | 24.3 | 0.00 | 0.00 | 0.00 | 83 | 1006.4 |
| 20260507124537 | 59 | 173 | 11.3 | 26.1 | 0.00 | 0.00 | 0.00 | 83 | 1006.4 |
| 20260507123037 | 60 | 142 | 9.6 | 28.7 | 0.00 | 0.00 | 0.00 | 81 | 1006.6 |
| 20260507121536 | 60 | 164 | 13.0 | 26.9 | 0.00 | 0.00 | 0.00 | 82 | 1006.4 |
| 20260507120038 | 59 | 152 | 12.2 | 21.7 | 0.00 | 0.00 | 0.00 | 84 | 1006.6 |
| 20260507114541 | 59 | 152 | 13.0 | 27.8 | 0.00 | 0.00 | 0.00 | 84 | 1006.9 |
| 20260507113037 | 59 | 175 | 13.9 | 34.8 | 0.00 | 0.00 | 0.00 | 84 | 1006.9 |
| 20260507111537 | 60 | 182 | 13.0 | 26.1 | 0.00 | 0.00 | 0.00 | 84 | 1007.7 |
| 20260507110042 | 59 | 186 | 13.0 | 21.7 | 0.00 | 0.00 | 0.00 | 84 | 1007.3 |
| 20260507104540 | 59 | 189 | 9.6 | 23.5 | 0.00 | 0.00 | 0.00 | 83 | 1007.9 |
| 20260507103037 | 59 | 178 | 11.3 | 23.5 | 0.00 | 0.00 | 0.00 | 83 | 1007.9 |
| 20260507101538 | 59 | 236 | 8.7 | 22.6 | 0.00 | 0.00 | 0.00 | 83 | 1008.1 |
| 20260507100041 | 59 | 142 | 10.4 | 24.3 | 0.00 | 0.00 | 0.00 | 84 | 1008.5 |
| 20260507094538 | 57 | 186 | 11.3 | 23.5 | 0.00 | 0.00 | 0.00 | 87 | 1008.2 |
| 20260507093045 | 57 | 161 | 7.8 | 18.2 | 0.00 | 0.00 | 0.00 | 87 | 1009.2 |
| 20260507091540 | 56 | 176 | 6.1 | 16.5 | 0.00 | 0.00 | 0.00 | 88 | 1009.5 |
| 20260507090038 | 56 | 158 | 7.0 | 15.6 | 0.00 | 0.00 | 0.00 | 88 | 1009.7 |
| 20260507084540 | 57 | 108 | 7.0 | 16.5 | 0.00 | 0.00 | 0.00 | 88 | 1009.8 |
| 20260507083037 | 57 | 190 | 6.1 | 13.9 | 0.00 | 0.00 | 0.00 | 87 | 1010.3 |
| 20260507081537 | 57 | 215 | 4.3 | 13.0 | 0.00 | 0.00 | 0.00 | 86 | 1009.3 |
| 20260507080040 | 58 | 191 | 5.2 | 13.9 | 0.00 | 0.00 | 0.00 | 86 | 1010.1 |
| 20260507074537 | 58 | 181 | 5.2 | 17.4 | 0.00 | 0.00 | 0.00 | 84 | 1010.5 |
| 20260507073039 | 58 | 231 | 6.1 | 16.5 | 0.00 | 0.00 | 0.00 | 85 | 1010.7 |
| 20260507071600 | 58 | 160 | 3.5 | 13.0 | 0.00 | 0.00 | 0.00 | 83 | 1011.4 |
| 20260507070039 | 59 | 152 | 6.1 | 15.6 | 0.00 | 0.00 | 0.00 | 82 | 1011.5 |
| 20260507064538 | 58 | 171 | 6.1 | 15.6 | 0.00 | 0.00 | 0.00 | 81 | 1011.4 |
| 20260507063044 | 59 | 152 | 7.0 | 15.6 | 0.00 | 0.00 | 0.00 | 81 | 1011.5 |
| 20260507061539 | 59 | 175 | 6.1 | 19.1 | 0.00 | 0.00 | 0.00 | 79 | 1011.7 |
| 20260507060038 | 60 | 169 | 7.0 | 17.4 | 0.00 | 0.00 | 0.00 | 76 | 1011.7 |
| 20260507054540 | 60 | 180 | 7.8 | 17.4 | 0.00 | 0.00 | 0.00 | 72 | 1011.8 |
| 20260507053109 | 59 | 187 | 8.7 | 18.2 | 0.00 | 0.00 | 0.00 | 70 | 1012.4 |
| 20260507051543 | 57 | 221 | 3.5 | 9.6 | 0.00 | 0.00 | 0.00 | 75 | 1013.0 |
| 20260507050040 | 58 | 137 | 3.5 | 12.2 | 0.00 | 0.00 | 0.00 | 76 | 1013.3 |
| 20260507044538 | 57 | 181 | 4.3 | 10.4 | 0.00 | 0.00 | 0.00 | 76 | 1013.6 |
| 20260507043039 | 58 | 158 | 5.2 | 12.2 | 0.00 | 0.00 | 0.00 | 76 | 1013.9 |
| 20260507041538 | 58 | 0 | 4.3 | 13.0 | 0.00 | 0.00 | 0.00 | 77 | 1014.3 |
| 20260507040037 | 58 | 0 | 4.3 | 15.6 | 0.00 | 0.00 | 0.00 | 77 | 1014.5 |
| 20260507034539 | 58 | 152 | 7.0 | 16.5 | 0.00 | 0.00 | 0.00 | 77 | 1014.7 |
| 20260507033044 | 58 | 137 | 7.0 | 15.6 | 0.00 | 0.00 | 0.00 | 78 | 1015.0 |
| 20260507031540 | 58 | 179 | 7.0 | 14.8 | 0.00 | 0.00 | 0.00 | 78 | 1015.2 |
| 20260507030039 | 58 | 191 | 6.1 | 15.6 | 0.00 | 0.00 | 0.00 | 77 | 1015.3 |
| 20260507024540 | 58 | 179 | 6.1 | 17.4 | 0.00 | 0.00 | 0.00 | 76 | 1015.5 |
| 20260507023039 | 59 | 195 | 7.0 | 17.4 | 0.00 | 0.00 | 0.00 | 76 | 1015.6 |
| 20260507021537 | 59 | 147 | 6.1 | 16.5 | 0.00 | 0.00 | 0.00 | 75 | 1015.7 |
| 20260507020042 | 58 | 163 | 7.0 | 16.5 | 0.00 | 0.00 | 0.00 | 76 | 1015.8 |
| 20260507014548 | 59 | 206 | 6.1 | 14.8 | 0.00 | 0.00 | 0.00 | 77 | 1015.8 |
| 20260507013037 | 59 | 162 | 7.8 | 17.4 | 0.00 | 0.00 | 0.00 | 77 | 1015.8 |